Location: Unspecified
(17.6330°N, 0.0000°E)
Time: 22:00:53
(UTC+00:00)

Courier 1B Rocket - Visible Passes

Search period start: 25 June 2019 00:00
Search period end: 05 July 2019 00:00
Orbit: 920 x 1202 km, 28.2° (Epoch: 24 June)

Date Brightness Start Highest point End Pass type
(mag) Time Alt. Az. Time Alt. Az. Time Alt. Az.
25 Jun 5.6 02:41:09 54° NNW 02:41:19 54° NNW 02:48:06 10° ENE visible
25 Jun 6.4 04:29:23 10° WNW 04:35:41 34° N 04:41:36 10° ENE visible
26 Jun 6.6 01:43:35 32° NE 01:43:35 32° NE 01:47:08 10° ENE visible
26 Jun 6.2 03:29:55 20° WNW 03:34:14 37° N 03:40:30 10° ENE visible
27 Jun 7.8 00:46:01 10° ENE 00:46:01 10° ENE 00:46:05 10° ENE visible
27 Jun 6.0 02:32:22 44° NNW 02:32:47 44° NNW 02:39:29 10° ENE visible
27 Jun 6.5 04:20:58 10° WNW 04:27:21 34° N 04:33:20 10° ENE visible
28 Jun 6.7 01:34:47 31° NE 01:34:47 31° NE 01:38:28 10° ENE visible
28 Jun 6.4 03:21:08 18° WNW 03:25:51 35° N 03:32:06 10° ENE visible
29 Jun 7.8 00:37:14 11° ENE 00:37:14 11° ENE 00:37:24 10° ENE visible
29 Jun 6.2 02:23:35 38° NNW 02:24:19 39° N 02:30:56 10° ENE visible
29 Jun 6.5 04:12:24 10° WNW 04:19:00 36° N 04:25:11 10° ENE visible
30 Jun 6.8 01:26:04 29° NE 01:26:04 29° NE 01:29:49 10° ENE visible
30 Jun 6.5 03:12:25 17° NW 03:17:29 35° N 03:23:49 10° ENE visible
30 Jun 7.1 20:27:56 10° SSW 20:29:24 14° S 20:29:24 14° S visible
01 Jul 7.8 00:28:36 10° ENE 00:28:36 10° ENE 00:28:41 10° ENE visible
01 Jul 6.4 02:14:57 35° NNW 02:15:54 36° N 02:22:30 10° ENE visible
01 Jul 6.3 04:03:41 10° WNW 04:10:36 42° N 04:17:03 10° E visible
01 Jul 6.8 19:28:46 10° S 19:32:23 14° SSE 19:33:23 14° SE visible
01 Jul 7.2 21:18:35 10° SW 21:19:51 16° SW 21:19:51 16° SW visible
02 Jul 7.0 01:17:35 27° NE 01:17:35 27° NE 01:21:14 10° ENE visible
02 Jul 6.4 03:03:56 17° NW 03:09:06 38° N 03:15:38 10° ENE visible
02 Jul 5.6 04:56:15 10° WNW 05:03:28 66° NNE 05:10:08 10° ESE visible
02 Jul 6.0 20:18:04 10° SSW 20:23:59 33° SSE 20:23:59 33° SSE visible
03 Jul 6.4 02:06:40 35° NNW 02:07:31 36° N 02:14:11 10° ENE visible
03 Jul 5.9 03:54:53 10° WNW 04:02:08 52° NNE 04:08:53 10° E visible
03 Jul 6.4 19:18:04 10° SSW 19:23:32 22° SSE 19:28:12 13° ESE visible
03 Jul 5.9 21:09:28 10° SW 21:14:41 46° SW 21:14:41 46° SW visible
04 Jul 7.1 01:09:33 24° NE 01:09:33 24° NE 01:12:46 10° ENE visible
04 Jul 6.2 02:55:57 21° NW 03:00:41 44° NNE 03:07:29 10° E visible
04 Jul 5.3 04:47:25 10° WNW 04:54:50 89° NNE 05:01:41 10° ESE visible
04 Jul 5.5 20:08:40 10° SW 20:15:49 49° SSE 20:18:56 33° E visible
04 Jul 6.7 22:01:59 10° WSW 22:05:25 29° W 22:05:25 29° W visible
